Temperature
20 19 18 18 17 17 18 17 17 17 17 17 17 17 17 17 17 17 17 17 17 17 17 17 17 17 17 16 16 16 16 16 16 17 17 17 17 17 16 17 17 17 16
20 19 18 17 18 18 17 17 17 17 17 17 17 17 17 17 17 17 17 17 17 17 17 17 17 17 16 16 16 16 16 16 16 17 17 18 17 16 17 16 16 17 16
20 19 18 18 17 17 17 17 17 17 17 17 17 17 17 17 17 17 17 17 17 17 17 17 17 16 16 16 16 16 16 16 16 16 17 18 19 18 17 16 16 16 16
21 20 19 18 18 17 17 17 17 17 17 17 17 17 17 17 17 17 17 17 17 17 17 16 16 16 16 16 16 16 16 16 16 16 16 17 17 18 18 17 16 16 16
21 20 19 18 18 17 17 17 17 17 17 17 17 17 17 17 17 17 17 17 17 17 16 16 16 16 16 16 15 15 16 16 16 17 16 16 16 17 18 18 17 17 16
21 20 19 18 17 17 17 16 16 17 17 17 17 17 17 17 17 17 17 17 17 16 16 16 16 16 16 15 15 15 15 15 15 16 16 17 17 17 18 18 17 17 17
21 20 19 18 17 17 17 16 16 16 17 17 17 17 17 17 17 17 17 17 17 16 16 16 16 16 16 15 15 15 15 15 15 15 16 16 16 17 17 17 18 17 17
22 20 19 18 18 17 17 17 16 16 17 17 17 17 17 17 17 17 17 17 17 17 16 16 16 16 16 15 15 15 15 15 15 15 15 15 16 16 16 17 17 17 18
22 21 20 19 18 17 17 17 16 16 16 16 17 17 17 17 17 17 17 17 17 17 16 16 16 16 16 15 15 15 15 15 15 15 15 15 15 15 15 16 16 17 18
22 21 20 19 18 18 17 17 17 16 16 17 17 17 17 17 17 17 17 17 17 16 16 16 16 16 15 15 15 15 15 15 15 15 15 15 15 15 15 15 15 15 16
23 21 20 19 18 18 17 17 17 16 16 17 16 17 17 17 17 17 17 16 16 16 16 16 16 16 15 15 15 15 15 15 15 14 14 15 14 15 15 15 15 15 15
22 21 20 19 18 18 18 17 17 17 17 17 17 17 17 17 17 17 17 16 16 16 16 16 16 16 15 15 15 15 15 15 15 15 15 15 14 14 15 14 14 15 14
22 21 20 19 18 18 18 18 17 17 17 17 17 17 17 17 17 17 17 16 16 16 16 16 16 16 16 15 15 15 15 15 15 15 15 15 14 14 14 14 14 14 14
22 21 20 19 19 18 18 18 17 17 17 17 17 17 17 17 17 17 17 17 17 16 16 16 16 16 16 15 15 15 15 15 15 15 14 14 14 14 14 14 14 14 14
22 21 20 19 19 18 18 18 17 17 17 17 17 17 17 17 16 16 16 16 16 16 16 16 16 16 16 16 15 15 15 15 15 14 14 14 14 14 14 14 14 14 14
21 20 20 19 18 18 18 18 17 17 17 17 17 17 17 17 16 16 16 16 16 16 16 16 16 16 16 16 16 15 15 15 15 14 14 14 14 14 14 14 14 14 13
21 20 19 19 18 18 18 18 17 17 17 17 17 17 17 16 16 16 16 16 16 16 16 16 16 16 16 16 16 16 15 15 14 14 14 14 14 14 14 14 14 14 14
20 19 19 18 18 18 18 18 17 17 17 17 17 17 17 17 17 16 16 16 16 16 16 16 16 16 16 16 16 15 15 14 14 14 14 14 14 13 13 13 13 13 13
18 18 18 18 18 18 18 17 17 17 17 16 16 16 16 16 16 16 16 16 16 16 16 16 15 15 15 15 15 15 14 14 14 14 14 13 13 13 13 13 13 13 13
17 17 17 17 17 17 17 17 17 16 16 16 16 16 16 16 16 16 16 16 16 16 15 15 15 15 15 15 15 14 14 14 13 13 13 13 13 13 13 12 12 12 12
16 16 16 16 16 16 16 16 16 16 16 16 16 16 16 16 16 16 15 15 15 15 15 14 14 14 14 14 14 14 13 13 13 13 13 13 12 12 12 12 12 11 11
15 15 15 15 15 15 16 15 15 15 15 15 15 15 15 15 15 15 15 15 14 14 14 14 14 13 13 13 13 13 13 13 12 12 12 12 12 12 11 11 11 11 11
14 14 14 14 14 14 15 15 14 14 14 14 14 14 14 14 14 14 14 14 14 14 13 13 13 13 13 12 12 12 12 12 12 11 11 11 11 11 11 10 10 10 10
13 13 13 13 13 13 14 14 13 14 14 13 13 13 13 13 13 13 13 13 13 13 13 13 12 12 12 12 12 11 11 11 11 11 10 10 10 10 10 10 10 10 9
12 12 13 13 13 13 13 13 13 13 13 13 13 13 13 12 12 12 12 12 12 12 12 12 12 12 11 11 11 11 11 10 10 10 10 10 10 10 10 10 10 9 9
12 12 12 12 12 12 12 12 12 12 12 12 12 12 12 12 12 12 12 12 11 11 11 11 11 11 11 11 11 11 10 10 10 10 10 10 10 10 9 9 9 9 9
Wind_Speed
9 10 10 11 13 13 12 13 13 12 11 10 10 9 8 8 7 7 9 10 9 9 8 6 6 6 5 5 5 4 4 4 3 4 4 4 4 3 3 3 3 3 3
10 10 11 12 13 13 12 13 14 14 13 11 9 8 8 7 8 7 8 10 10 10 9 7 7 6 5 5 5 4 4 3 3 4 4 4 5 5 4 4 4 3 4
12 12 12 12 12 13 13 12 13 13 13 12 9 8 7 7 7 8 8 9 11 10 8 8 7 6 7 6 6 6 6 4 4 4 4 3 3 4 5 4 4 4 4
12 12 12 12 12 12 12 12 13 13 13 14 13 13 11 10 10 9 9 9 10 10 9 9 8 7 6 5 7 6 5 5 5 4 3 4 4 3 4 6 5 4 4
12 12 12 12 11 11 11 11 12 13 13 14 14 13 11 9 8 9 9 9 9 10 10 9 8 7 6 6 5 5 5 5 5 4 4 4 4 6 5 3 5 5 5
11 11 11 10 10 10 10 11 12 12 13 13 14 14 13 12 11 11 11 10 9 9 10 10 8 8 6 7 6 6 6 5 4 4 4 5 4 5 5 4 5 5 4
12 12 12 11 11 11 12 12 12 12 13 14 14 14 14 13 14 13 12 11 10 9 11 10 9 8 7 7 7 6 5 6 5 5 5 5 4 4 4 5 4 4 4
12 12 12 11 11 11 12 12 12 12 12 13 12 12 13 11 11 12 11 11 9 9 11 11 10 9 9 9 7 7 7 6 6 6 4 4 5 4 4 5 5 5 5
11 12 12 12 11 11 12 12 12 12 13 13 12 12 12 12 11 12 11 10 8 9 11 11 11 10 10 9 9 7 7 6 7 7 7 6 4 5 4 4 5 6 6
11 12 12 12 11 11 11 12 12 12 13 13 12 11 12 12 11 11 12 11 11 10 11 11 11 11 11 10 9 8 8 8 7 6 5 6 6 5 5 5 5 6 7
11 11 11 11 11 11 11 11 12 12 12 12 12 12 12 12 12 11 12 11 11 11 11 11 11 11 11 11 10 10 9 9 9 8 8 8 7 6 6 6 6 6 6
10 11 11 12 12 12 12 11 12 12 12 12 12 12 12 12 12 11 11 11 11 11 11 11 11 12 12 11 11 11 10 10 10 10 9 9 8 8 8 7 7 7 6
11 11 11 12 12 12 11 11 12 12 12 12 12 12 12 12 11 11 11 11 11 11 11 11 12 12 11 11 12 11 11 11 10 10 10 10 9 9 8 8 8 7 7
11 12 12 12 12 11 11 11 11 11 12 12 12 12 12 12 11 11 11 10 10 10 11 11 11 11 11 11 11 11 11 10 10 10 10 10 11 11 10 9 10 9 8
11 12 12 12 12 12 11 11 11 11 11 11 11 11 11 11 11 10 10 10 10 10 10 10 10 10 10 10 11 11 11 11 11 11 11 12 11 10 9 9 10 10 9
11 11 12 12 12 12 11 11 10 10 11 11 11 10 10 10 10 10 10 9 9 9 9 10 10 10 9 8 9 10 11 11 11 11 11 11 12 12 12 12 11 10 11
10 11 12 11 11 11 11 11 10 10 10 10 10 10 10 10 10 10 10 10 10 10 10 9 9 10 8 8 10 11 10 10 10 10 10 10 10 11 12 13 14 14 14
7 8 10 10 10 10 10 10 10 10 10 10 9 9 9 9 9 9 9 9 9 9 9 9 10 9 8 10 10 11 11 10 10 10 10 11 11 10 10 11 12 12 13
5 6 7 9 9 10 10 10 10 10 9 8 7 7 7 8 8 8 8 8 7 8 8 8 9 8 6 8 9 9 8 8 10 10 10 10 11 8 7 10 11 11 10
6 7 7 8 8 8 10 10 10 9 8 7 6 5 5 6 6 5 5 5 6 6 6 5 5 5 5 5 8 9 6 7 8 7 7 7 7 5 6 9 10 11 9
8 8 8 8 7 8 9 9 9 7 6 6 6 6 5 5 4 4 3 3 4 3 3 2 1 1 1 2 5 7 6 6 6 5 5 4 6 6 6 7 8 8 6
10 10 10 10 9 9 10 10 8 7 7 7 7 6 5 5 5 5 4 3 3 3 3 2 2 1 1 1 3 5 5 5 5 5 4 2 3 6 7 7 6 5 5
11 11 12 13 12 11 11 11 9 8 9 9 8 7 7 5 4 4 4 3 3 2 2 2 1 1 1 2 4 4 4 4 3 2 1 1 3 5 6 8 8 7 7
12 12 13 14 13 12 12 11 9 9 10 10 9 8 7 7 6 4 3 3 2 2 1 1 1 1 1 0 1 1 2 4 3 2 2 4 5 5 5 5 6 6 7
12 13 13 14 14 12 12 11 10 10 11 10 9 8 8 7 7 7 6 5 5 4 2 1 1 1 1 3 4 2 1 1 0 2 3 4 4 4 5 5 6 6 7
13 14 14 14 14 13 12 11 10 9 9 8 8 7 6 6 5 6 6 9 7 7 7 7 5 4 5 4 3 3 3 2 1 3 5 5 5 5 6 6 6 7 8
Wind_Direction
186 184 183 184 183 184 186 187 191 185 178 176 178 179 186 190 188 188 184 183 187 184 190 187 179 198 189 190 187 192 184 212 218 229 217 200 203 199 194 215 214 186 195
181 181 183 183 188 187 190 190 191 185 182 181 180 181 179 188 190 189 182 188 189 187 189 191 191 190 182 187 193 209 228 213 213 246 234 214 191 201 191 197 208 205 195
189 185 187 189 192 193 192 191 188 183 184 177 173 173 172 183 185 186 185 189 189 188 189 188 194 186 198 188 198 204 219 222 210 240 259 249 222 173 179 195 199 204 213
192 189 189 191 195 195 192 191 189 186 184 179 181 183 187 190 192 187 181 182 186 185 184 189 193 200 206 186 203 203 214 228 219 199 244 287 331 256 187 189 187 194 211
189 189 191 193 195 191 191 190 190 188 186 185 185 187 193 195 190 185 176 182 182 185 186 189 192 198 207 200 208 189 223 222 237 225 213 221 233 254 263 211 190 196 198
185 185 186 188 189 187 189 189 190 189 184 185 188 192 194 194 190 187 181 187 183 187 188 189 193 199 201 195 202 203 210 232 241 252 240 231 231 232 242 239 222 215 199
184 182 184 185 186 187 187 186 186 187 185 187 192 196 197 196 195 192 189 190 187 189 188 191 193 199 199 199 200 204 219 214 217 233 239 243 249 258 256 260 249 237 214
184 183 183 184 182 183 182 182 183 185 187 187 191 194 195 197 198 197 192 192 193 190 184 190 194 199 199 201 198 209 208 210 216 225 236 244 239 242 248 258 258 244 233
180 180 180 182 181 180 182 183 183 185 188 188 188 190 193 198 196 191 197 195 192 188 186 192 194 198 201 202 200 214 209 208 216 214 209 229 226 233 240 247 257 264 261
179 177 178 181 180 180 181 183 183 186 187 188 190 189 192 195 193 193 197 196 193 192 188 194 195 197 201 201 206 210 208 213 215 223 222 228 230 223 232 238 244 257 270
177 174 174 177 176 177 177 181 183 184 187 189 192 192 193 195 194 196 196 195 194 192 195 196 197 201 204 203 206 218 207 215 216 215 214 220 236 234 231 230 238 243 251
173 171 170 170 173 176 177 179 180 184 188 187 189 191 193 194 194 196 196 193 193 196 199 198 201 205 207 206 208 216 213 217 221 220 220 221 218 223 242 240 240 244 251
173 170 169 171 172 175 178 179 181 183 184 185 187 188 192 193 195 195 193 193 194 198 199 200 205 208 210 210 213 216 217 221 225 225 223 224 223 223 229 235 241 241 238
175 175 173 174 174 175 177 180 182 182 182 182 184 188 193 194 194 195 195 194 195 198 201 204 209 211 213 215 216 216 220 225 228 229 228 229 227 226 229 231 237 244 247
177 178 177 175 175 176 177 180 181 181 180 182 184 186 190 191 192 192 193 194 197 200 202 207 209 212 214 215 214 217 220 223 227 227 229 231 232 234 235 240 234 233 239
179 178 176 174 175 176 177 177 178 178 178 182 184 183 183 184 186 188 189 191 197 202 201 206 208 210 215 192 199 221 227 226 229 231 231 232 226 228 229 245 255 255 246
177 175 174 174 174 175 174 174 173 171 173 177 180 178 179 181 185 187 189 191 194 197 201 206 209 212 211 179 194 210 230 233 233 234 236 241 234 221 232 229 231 242 246
167 167 168 167 169 168 168 169 167 168 170 173 176 177 179 180 182 186 190 193 194 196 200 204 209 213 206 180 193 202 221 236 237 237 239 243 248 239 235 240 238 239 239
137 145 153 156 157 160 160 158 159 160 163 165 169 172 175 178 182 186 191 191 193 197 204 206 211 214 206 180 192 202 222 232 239 240 240 242 243 228 219 241 248 248 247
108 117 124 132 140 149 151 150 149 151 153 154 152 152 159 167 174 181 184 183 191 199 203 205 210 215 223 185 188 206 230 238 242 240 241 236 236 225 212 239 248 251 252
98 102 106 110 117 128 135 136 134 136 137 134 130 130 136 140 144 152 163 173 182 181 185 177 176 193 232 164 174 202 230 243 243 247 245 235 192 218 227 241 253 259 267
95 95 94 92 94 106 115 115 115 119 120 117 113 111 112 115 119 123 124 137 152 152 148 154 174 188 201 209 165 180 219 256 252 258 265 266 179 215 229 236 245 251 257
94 93 94 91 87 89 97 100 99 104 107 104 101 99 98 94 96 110 118 122 128 139 154 176 194 195 189 166 160 171 193 220 242 266 308 295 210 223 233 228 227 231 244
91 92 91 89 86 86 87 91 95 97 98 97 96 95 93 91 81 68 74 81 84 103 139 158 187 258 250 50 122 192 201 201 221 251 223 211 220 233 251 243 230 238 250
86 87 87 86 83 82 82 83 87 91 93 92 91 90 87 85 81 72 53 51 53 44 31 41 41 351 6 41 25 346 310 300 278 265 255 252 247 245 247 251 252 252 250
88 86 84 83 81 78 77 77 81 86 90 91 86 86 87 86 87 91 83 59 60 71 62 43 30 53 63 70 53 34 17 3 302 268 262 263 262 264 265 264 262 259 261
Height
1491 1493 1494 1496 1499 1501 1503 1506 1510 1514 1518 1522 1526 1531 1536 1540 1544 1547 1550 1553 1555 1557 1559 1562 1563 1565 1567 1568 1569 1571 1571 1573 1573 1574 1575 1575 1576 1576 1577 1578 1579 1580 1580
1490 1491 1493 1494 1496 1498 1501 1503 1507 1511 1515 1519 1524 1528 1533 1537 1541 1545 1548 1550 1553 1555 1558 1560 1562 1563 1565 1566 1567 1569 1571 1572 1572 1573 1574 1574 1576 1575 1576 1577 1578 1579 1579
1487 1489 1491 1492 1494 1495 1498 1501 1504 1507 1512 1516 1521 1526 1531 1535 1539 1542 1545 1548 1551 1553 1556 1558 1560 1562 1564 1565 1566 1567 1569 1570 1571 1572 1573 1573 1572 1574 1575 1575 1576 1577 1578
1484 1486 1488 1490 1492 1493 1496 1498 1501 1505 1509 1513 1518 1522 1527 1531 1535 1539 1543 1546 1549 1551 1554 1556 1558 1560 1563 1563 1565 1566 1567 1568 1570 1570 1570 1572 1571 1572 1573 1574 1575 1576 1576
1481 1484 1486 1488 1490 1491 1493 1495 1499 1502 1506 1510 1515 1519 1524 1529 1533 1537 1540 1543 1546 1549 1552 1554 1556 1558 1560 1561 1563 1563 1565 1567 1568 1569 1570 1570 1571 1572 1572 1572 1574 1575 1576
1479 1482 1484 1486 1488 1489 1491 1493 1496 1499 1503 1507 1512 1516 1521 1525 1530 1533 1537 1540 1544 1546 1549 1551 1553 1556 1558 1559 1560 1562 1563 1564 1566 1567 1568 1569 1570 1571 1571 1571 1572 1573 1574
1476 1479 1482 1484 1485 1487 1489 1491 1494 1497 1500 1504 1509 1513 1518 1523 1527 1531 1534 1538 1541 1544 1546 1549 1551 1553 1555 1557 1559 1560 1561 1562 1563 1564 1566 1568 1568 1569 1570 1570 1571 1571 1572
1473 1477 1479 1482 1483 1485 1487 1489 1492 1495 1499 1502 1506 1510 1515 1520 1524 1528 1532 1535 1538 1541 1543 1546 1548 1551 1553 1555 1556 1558 1559 1560 1561 1563 1563 1565 1566 1567 1568 1569 1569 1569 1570
1471 1474 1477 1480 1482 1483 1485 1488 1490 1493 1497 1500 1504 1508 1512 1516 1521 1524 1528 1532 1535 1538 1540 1543 1545 1548 1550 1552 1554 1556 1557 1558 1559 1561 1561 1562 1564 1565 1566 1567 1567 1568 1567
1469 1472 1475 1478 1480 1482 1484 1487 1489 1492 1495 1499 1502 1506 1510 1514 1518 1521 1525 1528 1531 1535 1537 1540 1543 1545 1548 1550 1551 1553 1554 1555 1556 1558 1559 1560 1562 1562 1563 1564 1565 1565 1566
1466 1470 1473 1476 1478 1481 1483 1485 1487 1490 1494 1497 1501 1504 1508 1512 1515 1518 1522 1525 1528 1531 1534 1537 1540 1542 1545 1547 1548 1551 1552 1553 1554 1555 1556 1557 1558 1559 1561 1561 1562 1562 1562
1465 1468 1471 1474 1476 1479 1482 1484 1486 1489 1492 1495 1499 1502 1506 1509 1513 1516 1519 1522 1525 1528 1531 1534 1537 1539 1542 1544 1545 1547 1549 1550 1551 1552 1553 1554 1555 1555 1557 1558 1558 1559 1559
1464 1467 1470 1472 1475 1478 1480 1483 1485 1488 1491 1494 1496 1500 1503 1507 1510 1513 1516 1519 1522 1525 1528 1530 1533 1536 1539 1540 1542 1543 1545 1547 1548 1549 1550 1550 1551 1552 1553 1553 1555 1555 1555
1462 1465 1468 1471 1473 1476 1479 1481 1484 1487 1489 1492 1494 1497 1500 1504 1507 1511 1514 1516 1519 1522 1524 1527 1530 1533 1535 1536 1538 1540 1541 1542 1544 1545 1545 1546 1547 1548 1549 1549 1549 1550 1551
1460 1463 1466 1469 1472 1475 1477 1480 1483 1485 1488 1490 1493 1495 1498 1502 1505 1508 1511 1514 1516 1519 1521 1524 1526 1529 1531 1532 1534 1536 1537 1538 1539 1540 1541 1541 1542 1543 1544 1545 1545 1546 1546
1458 1461 1464 1467 1470 1473 1476 1478 1481 1484 1486 1489 1492 1494 1497 1499 1502 1505 1508 1511 1513 1516 1518 1520 1522 1524 1526 1528 1529 1531 1532 1533 1534 1535 1536 1536 1537 1537 1538 1539 1540 1540 1540
1457 1459 1462 1465 1468 1471 1473 1476 1479 1482 1485 1487 1490 1493 1495 1498 1501 1504 1506 1508 1510 1512 1514 1516 1518 1520 1522 1523 1525 1526 1527 1528 1529 1530 1530 1532 1532 1532 1532 1532 1533 1533 1534
1456 1458 1461 1463 1466 1469 1472 1475 1478 1481 1483 1486 1489 1491 1494 1496 1498 1501 1503 1505 1507 1509 1511 1512 1514 1515 1517 1518 1520 1521 1522 1523 1523 1524 1524 1525 1526 1526 1526 1526 1526 1526 1527
1455 1457 1459 1462 1465 1468 1471 1474 1477 1480 1482 1484 1487 1489 1492 1494 1496 1498 1500 1502 1504 1506 1508 1509 1510 1511 1512 1513 1515 1516 1516 1517 1517 1518 1518 1518 1519 1519 1520 1520 1520 1520 1520
1454 1456 1459 1461 1464 1467 1470 1473 1476 1479 1481 1483 1485 1488 1490 1492 1494 1496 1498 1499 1501 1502 1504 1506 1506 1507 1508 1509 1510 1511 1511 1512 1512 1512 1512 1512 1512 1512 1513 1513 1513 1513 1513
1455 1457 1459 1461 1464 1467 1470 1472 1475 1478 1480 1482 1484 1486 1488 1490 1491 1493 1495 1496 1498 1499 1500 1502 1502 1503 1503 1504 1504 1505 1506 1506 1506 1507 1507 1507 1506 1506 1506 1506 1506 1506 1506
1457 1458 1459 1462 1464 1467 1469 1472 1475 1478 1480 1482 1484 1485 1487 1489 1490 1491 1492 1494 1495 1496 1497 1498 1499 1499 1500 1500 1500 1501 1501 1501 1501 1501 1502 1501 1501 1500 1500 1500 1500 1500 1500
1459 1461 1462 1464 1466 1469 1471 1473 1476 1479 1480 1482 1484 1485 1487 1488 1489 1490 1491 1492 1493 1494 1495 1496 1496 1497 1497 1497 1497 1497 1496 1496 1496 1496 1496 1496 1495 1495 1494 1494 1494 1493 1494
1462 1464 1466 1467 1469 1471 1474 1476 1478 1480 1481 1483 1484 1486 1487 1488 1489 1490 1492 1492 1493 1493 1494 1495 1495 1496 1496 1495 1494 1494 1493 1493 1493 1493 1492 1491 1491 1491 1490 1490 1489 1489 1489
1466 1468 1470 1472 1474 1476 1477 1479 1481 1483 1484 1485 1486 1488 1489 1490 1490 1491 1492 1492 1492 1493 1493 1494 1494 1495 1494 1493 1492 1492 1492 1491 1491 1490 1489 1489 1489 1488 1487 1486 1485 1485 1484
1471 1473 1475 1477 1479 1480 1481 1483 1484 1486 1487 1488 1489 1490 1491 1492 1492 1493 1493 1493 1494 1493 1493 1493 1493 1492 1492 1491 1490 1490 1489 1489 1488 1488 1487 1487 1486 1485 1483 1482 1481 1480 1479